Location: Dover
(39.1580°N, 75.5250°W)
Time: 09:04:59
(UTC-05:00)

ISS - All Passes

Search period start: 15 December 2017 00:00
Search period end: 25 December 2017 00:00
Orbit: 402 x 407 km, 51.6° (Epoch: 15 December)

Date Brightness Start Highest point End Pass type
(mag) Time Alt. Az. Time Alt. Az. Time Alt. Az.
15 Dec - 10:04:53 10° S 10:06:59 16° SE 10:09:06 10° E daylight
15 Dec - 11:39:58 10° WSW 11:43:11 50° NW 11:46:24 10° NE daylight
15 Dec - 13:18:36 10° NW 13:20:17 13° NNW 13:21:57 10° NNE daylight
15 Dec - 16:32:49 10° NNW 16:35:25 21° NNE 16:38:01 10° ENE daylight
15 Dec - 18:08:53 10° WNW 18:12:06 54° SW 18:15:18 10° SE visible
16 Dec - 10:47:37 10° SW 10:50:53 83° SE 10:54:11 10° NE daylight
16 Dec - 12:25:26 10° WNW 12:27:44 17° NNW 12:30:02 10° NNE daylight
16 Dec - 15:40:52 10° NNW 15:42:55 15° NNE 15:44:57 10° ENE daylight
16 Dec - 17:16:35 10° NW 17:19:52 73° NE 17:23:08 10° ESE visible
16 Dec - 18:55:05 10° WSW 18:55:54 11° SW 18:56:43 10° SW visible
17 Dec - 09:55:35 10° SSW 09:58:41 39° SE 10:01:47 10° ENE daylight
17 Dec - 11:32:28 10° W 11:35:15 25° NNW 11:38:03 10° NNE daylight
17 Dec - 13:12:07 10° NNW 13:12:39 10° N 13:13:10 10° N daylight
17 Dec - 14:48:58 10° NNW 14:50:20 12° NNE 14:51:42 10° NE daylight
17 Dec - 16:24:25 10° NW 16:27:32 39° NNE 16:30:38 10° ESE daylight
17 Dec - 18:01:17 10° W 18:03:51 21° SW 18:06:23 10° S visible
18 Dec - 09:04:03 10° S 09:06:33 20° SE 09:09:02 10° E daylight
18 Dec - 10:39:42 10° WSW 10:42:50 40° NNW 10:45:58 10° NE daylight
18 Dec - 12:18:35 10° NW 12:20:01 12° NNW 12:21:25 10° NNE daylight
18 Dec - 13:57:17 10° N 13:57:42 10° N 13:58:06 10° NNE daylight
18 Dec - 15:32:20 10° NNW 15:35:06 24° NNE 15:37:51 10° E daylight
18 Dec - 17:08:33 10° WNW 17:11:41 42° SW 17:14:47 10° SSE visible
19 Dec - 08:14:06 10° SE 08:14:28 10° SE 08:14:50 10° ESE daylight
19 Dec - 09:47:12 10° SW 09:50:29 77° NW 09:53:46 10° NE daylight
19 Dec - 11:25:19 10° WNW 11:27:24 16° NNW 11:29:30 10° NNE daylight
19 Dec - 14:40:19 10° NNW 14:42:35 17° NNE 14:44:50 10° ENE daylight
19 Dec - 16:16:08 10° NW 16:19:27 88° SSW 16:22:43 10° SE daylight
20 Dec - 08:55:01 10° SW 08:58:12 51° SE 09:01:25 10° ENE daylight
20 Dec - 10:32:13 10° WNW 10:34:52 22° NNW 10:37:30 10° NNE daylight
20 Dec - 13:48:21 10° NNW 13:49:58 13° NNE 13:51:36 10° NE daylight
20 Dec - 15:23:54 10° NW 15:27:05 47° NNE 15:30:17 10° ESE daylight
20 Dec - 17:01:06 10° W 17:03:18 17° SW 17:05:29 10° S daylight
21 Dec - 08:03:14 10° S 08:05:59 25° SE 08:08:46 10° ENE daylight
21 Dec - 09:39:21 10° W 09:42:22 33° NNW 09:45:25 10° NE daylight
21 Dec - 11:18:29 10° NNW 11:19:38 11° NNW 11:20:46 10° N daylight
21 Dec - 12:56:31 10° N 12:57:19 11° N 12:58:08 10° NNE daylight
21 Dec - 14:31:45 10° NNW 14:34:39 28° NNE 14:37:33 10° E daylight
21 Dec - 16:08:09 10° WNW 16:11:08 32° SW 16:14:06 10° SSE daylight
22 Dec - 07:12:16 10° SSE 07:13:52 13° SE 07:15:27 10° E daylight
22 Dec - 08:46:43 10° WSW 08:49:57 61° NW 08:53:13 10° NE daylight
22 Dec - 10:25:06 10° NW 10:26:58 14° NNW 10:28:51 10° NNE daylight
22 Dec - 13:39:40 10° NNW 13:42:07 19° NNE 13:44:34 10° ENE daylight
22 Dec - 15:15:37 10° NW 15:18:53 69° SW 15:22:08 10° SE daylight
23 Dec - 07:54:22 10° SW 07:57:37 67° SE 08:00:53 10° ENE daylight
23 Dec - 09:31:54 10° WNW 09:34:22 19° NNW 09:36:49 10° NNE daylight
23 Dec - 12:47:39 10° NNW 12:49:30 14° NNE 12:51:21 10° NE daylight
23 Dec - 14:23:16 10° NW 14:26:32 59° NE 14:29:47 10° ESE daylight
23 Dec - 16:00:58 10° W 16:02:38 13° SW 16:04:18 10° SSW daylight
24 Dec - 07:02:23 10° SSW 07:05:20 32° SE 07:08:18 10° ENE daylight
24 Dec - 08:38:54 10° W 08:41:49 28° NNW 08:44:43 10° NNE daylight
24 Dec - 10:18:18 10° NNW 10:19:08 11° N 10:19:58 10° N daylight
24 Dec - 11:55:43 10° N 11:56:49 11° NNE 11:57:56 10° NNE daylight
24 Dec - 13:31:03 10° NW 13:34:05 33° NNE 13:37:06 10° E daylight
24 Dec - 15:07:40 10° WNW 15:10:28 26° SW 15:13:15 10° SSE daylight
